Погода в Гораях

Россия / Псковская область     57°07′55″N   28°31′15″E
темп.,
°C
ветер,
м/с
пор.,
м/с
влажн.,
%
обл.,
%
осадки,
мм/ч
давл.,
гПа
погр.,
м
20 января, чт
чт2000:00+1юз61586100 0.0 1002515
03:00+1ююз61681100 0.0 999566
06:00+1ю61684100 0.0 994599
09:00+1ююз71483100 0.0 991897
12:000ю61496100 0.8 989915
15:000ююз6139190 1.7 9871113
18:00−1ююз6138097 0.1 986938
21:00−2ю61280100 0.2 986974
21 января, пт
пт2100:00−3ююв71493100 0.3 9851020
03:00−4ююв51293100 1.0 985788
06:00−4вюв3796100 0.5 986379
09:00−4св2596100 1.3 988279
12:00−4с359399 0.3 991429
15:00−3ссз479093 0.4 993559
18:00−4ссз499595 0.3 995458
21:00−4с4992100 0.5 998544
22 января, сб
сб2200:00−6с4109499 0.0 1001406
03:00−6с4109399 0.1 1004428
06:00−5ссз41195100 0.2 1005598
09:00−4ссз51295100 0.8 1007808
12:00−4с51193100 0.9 1010657
15:00−4с5990100 1.3 1012647
18:00−7ссв389353 0.1 1016264
21:00−8ссв389576 0.1 1019251
23 января, вс
вс2300:00−9с2696100 0.0 1021210
03:00−11с269657 0.0 1024148
06:00−13св269768 0.0 1026120
09:00−15с119855 0.0 102928
12:00−11ссв129018 0.0 1032115
15:00−8ссв11875 0.0 1033145
18:00−12с009777 0.0 103410
21:00−14ююз119862 0.0 10359
24 января, пн
пн2400:00−14ю219755 0.0 103629
03:00−14ю249752 0.0 103669
06:00−14ю259719 0.0 103589
09:00−13ю3895100 0.0 1034145
12:00−9ююз410886 0.0 1033266
15:00−6ююз412855 0.0 1030481
18:00−7ю5138937 0.0 1029378
21:00−7ю51485100 0.0 1026438